RH
59 56 60 64 64 66 67 68 71 74 74 71 67 64 64 64 63 59 58 58 57 60 64 64 61 61 61 60 59 59 58 52 47 46 46 43 43 44 47 47 45 47 46 44 44 42 44 49 46 51 55 51 53 53 50 53 51 45 47 45 37 27 24 34 39 29 22 22 24 23 24 26 27 27 29 30 31 31 34 38 37 36 36 36 37
59 56 59 66 71 72 71 71 75 78 74 70 68 66 64 64 63 61 65 68 67 67 68 67 66 66 67 63 59 60 57 51 46 46 46 46 44 45 49 48 45 46 47 46 47 45 44 45 47 52 54 50 52 51 49 52 52 48 44 38 30 21 21 32 37 33 28 25 27 26 24 26 27 28 32 34 35 35 36 40 40 40 41 40 42
59 58 59 64 71 77 77 74 76 77 73 69 69 68 66 66 66 66 69 70 69 68 68 69 68 69 70 66 61 60 55 48 48 48 48 48 48 47 49 48 45 47 49 48 49 49 46 45 48 51 51 52 52 49 49 51 48 47 44 35 26 20 24 33 37 36 32 28 30 30 26 28 30 31 33 35 38 38 37 39 41 42 43 42 44
60 62 64 66 71 79 81 76 77 77 71 69 70 69 69 68 67 69 69 67 68 69 69 70 70 71 72 68 63 61 54 46 47 51 51 51 52 51 50 50 48 48 49 47 48 51 51 50 50 48 46 50 49 45 48 48 42 43 42 33 26 22 24 33 38 40 38 31 30 33 34 33 33 34 35 35 38 41 40 39 39 41 42 42 44
60 60 65 68 70 77 79 78 81 78 70 70 72 71 71 70 68 70 70 67 68 69 69 70 70 70 69 66 65 62 54 45 46 51 52 51 52 53 52 51 49 50 49 45 44 49 52 53 54 50 45 46 46 43 44 43 39 40 39 32 28 25 23 28 33 39 43 37 32 36 41 39 36 36 37 37 38 39 40 40 39 40 42 43 44
63 58 64 70 72 76 79 80 82 80 75 75 75 73 73 72 71 72 71 68 68 68 68 67 67 66 65 65 66 61 51 43 43 47 49 49 50 53 54 53 51 51 50 45 42 43 45 48 54 54 51 50 49 46 44 41 36 36 36 33 33 30 26 28 31 34 38 40 40 42 45 44 42 39 39 42 42 41 43 44 44 44 44 46 46
68 60 60 67 73 78 82 82 79 78 78 77 77 77 75 74 76 75 71 70 69 68 66 65 64 64 66 66 62 56 49 43 43 47 48 47 48 50 53 55 53 51 49 45 43 43 42 44 48 50 54 56 55 51 46 41 37 37 37 35 37 41 39 35 36 36 36 39 44 47 46 44 44 44 45 49 49 46 46 49 51 49 46 46 47
75 69 63 67 76 80 80 79 76 74 74 74 76 76 74 77 81 77 73 71 69 67 65 64 63 64 65 63 58 54 52 48 47 49 47 44 46 48 50 51 50 48 47 44 43 43 41 42 45 46 49 53 54 54 49 43 41 41 39 36 41 48 47 42 40 42 41 40 42 45 45 44 45 46 48 51 53 51 49 50 50 50 48 48 48
79 76 73 73 77 77 76 77 76 75 75 76 76 76 76 80 81 77 75 72 66 64 64 63 63 64 64 64 61 59 58 53 51 52 48 42 42 45 47 48 45 44 44 43 43 43 41 43 45 45 46 47 48 50 49 46 46 46 44 43 44 47 47 45 43 43 42 41 41 42 43 43 43 45 47 48 49 50 49 49 49 49 50 50 49
79 77 75 75 75 76 77 79 80 79 79 80 81 82 83 84 83 81 78 72 67 65 63 62 63 63 65 66 65 63 61 56 53 54 50 42 38 39 45 50 48 45 45 45 45 46 45 45 45 44 45 46 45 45 45 46 49 50 49 50 50 49 48 47 46 43 42 41 41 42 42 42 42 45 46 46 47 48 50 50 51 52 53 52 52
80 78 76 76 75 75 77 79 82 83 82 81 82 85 86 86 85 84 79 74 70 67 65 63 62 62 65 67 66 65 64 60 56 54 51 45 39 38 41 46 48 45 46 49 49 48 48 48 47 45 44 44 44 41 41 44 47 49 51 52 52 51 50 49 48 45 44 44 43 43 42 43 46 47 47 50 51 53 54 54 54 54 54 54 54
80 80 79 79 77 75 77 80 83 86 86 82 80 82 86 87 85 84 82 79 75 71 68 67 65 64 66 67 65 64 64 61 56 53 51 47 44 41 40 41 44 43 42 45 47 46 47 48 49 47 42 40 39 37 38 41 44 46 48 49 50 49 47 47 46 46 47 49 49 48 47 48 50 50 50 53 54 55 57 56 55 56 56 55 54
79 81 82 81 80 79 79 80 81 85 85 81 80 82 87 88 85 83 83 82 81 79 76 76 74 71 68 65 64 65 65 62 56 51 50 49 46 44 41 40 41 41 39 39 42 43 43 44 44 43 40 37 36 38 39 40 42 43 44 45 45 44 42 42 42 44 46 48 49 51 51 50 50 50 50 51 53 55 57 57 55 56 57 56 56
84 84 84 83 83 83 82 82 83 85 84 81 82 86 89 90 87 84 81 80 82 85 85 85 84 80 72 67 68 70 70 67 62 55 51 49 45 41 42 43 42 42 42 42 43 45 48 50 47 44 45 44 41 41 44 45 47 47 45 44 43 42 41 40 41 43 45 47 49 52 53 53 53 53 52 52 52 54 54 54 53 54 54 55 56
88 86 86 85 85 86 87 86 87 88 87 86 87 89 91 92 91 88 84 82 83 85 86 87 87 85 80 75 73 74 74 72 68 60 54 52 47 42 44 48 47 46 48 47 45 46 51 56 55 52 54 54 49 46 48 50 53 53 51 50 48 47 46 44 43 45 46 48 51 52 53 53 54 54 54 54 55 55 55 54 54 54 56 56 55
91 88 87 87 88 89 89 89 89 90 91 92 92 92 94 95 93 91 89 86 87 87 87 87 87 88 87 83 79 78 77 76 72 65 59 55 52 49 49 51 51 52 52 50 48 48 49 54 57 57 57 58 57 54 52 51 51 52 53 54 54 54 53 51 51 52 53 54 54 54 52 51 51 53 54 56 57 58 57 57 58 60 61 59 57
94 90 89 91 92 92 92 92 92 92 93 94 93 93 94 94 93 93 93 92 92 91 90 89 88 89 88 87 84 81 79 77 75 70 63 57 55 56 56 56 58 61 59 55 55 54 51 49 51 55 57 58 58 56 54 52 51 50 51 53 55 56 56 57 58 59 61 61 58 55 54 52 52 53 54 55 58 60 61 62 64 66 64 62 63
97 93 93 95 95 95 96 96 95 94 92 93 93 92 93 94 94 95 95 94 93 92 91 89 88 89 90 89 87 84 83 81 77 72 67 59 55 56 57 59 63 66 64 61 62 62 57 51 49 52 55 57 56 55 54 54 53 52 51 52 54 56 58 60 60 62 66 67 64 62 59 57 59 60 61 63 66 67 69 69 69 70 67 67 71
97 96 96 98 97 96 97 96 96 95 93 93 94 93 94 95 96 96 96 94 92 91 91 89 87 89 92 92 90 89 89 85 81 78 72 65 58 56 56 59 63 65 62 59 59 60 59 57 55 54 55 57 57 56 55 55 56 56 55 54 55 57 59 61 61 62 65 68 70 69 66 65 69 71 72 74 74 74 74 73 74 77 75 74 74
97 97 97 99 98 97 97 96 96 96 95 95 95 95 95 95 95 95 93 91 91 90 89 89 88 90 94 94 94 94 92 88 86 85 82 75 67 62 59 59 59 58 56 54 53 53 54 55 56 56 56 57 57 57 55 55 57 58 58 58 58 59 60 62 64 66 67 69 72 74 74 75 76 76 77 76 75 75 77 78 80 81 81 80 78
94 96 97 98 98 98 97 97 96 95 94 93 92 92 91 91 91 90 88 88 89 89 88 87 88 90 92 94 94 94 92 88 86 88 89 86 78 72 68 63 58 54 51 49 48 49 49 49 52 55 55 53 52 52 51 51 53 54 56 57 58 59 60 62 67 72 74 75 76 77 77 76 76 76 76 76 76 78 79 80 82 84 83 82 80
87 88 89 90 91 92 91 91 92 91 90 89 90 91 90 90 91 89 88 88 88 87 87 87 87 88 88 89 89 87 86 85 84 86 90 89 84 79 74 69 63 61 60 57 53 53 53 51 52 57 58 54 52 53 53 53 55 57 60 64 65 66 66 67 70 74 75 76 76 77 78 78 77 76 75 77 83 85 82 80 81 84 86 85 83
81 81 81 81 80 80 81 81 82 83 82 82 84 87 87 88 91 92 91 90 88 87 89 90 90 89 87 85 84 82 82 83 83 84 85 84 81 78 76 75 73 73 74 73 69 67 66 63 63 68 72 70 68 67 65 64 64 65 68 70 71 71 70 69 70 70 68 69 70 71 74 76 78 80 80 81 84 86 85 84 82 82 85 87 86
80 80 80 79 78 76 75 75 74 75 76 76 77 77 76 77 80 83 85 86 85 83 83 85 86 86 83 80 78 77 77 77 76 76 76 75 75 75 76 79 80 78 77 76 74 73 71 69 70 72 74 74 74 74 72 71 71 72 72 73 73 73 72 72 73 72 70 69 69 70 71 72 75 79 81 81 81 81 84 86 85 83 83 84 84
83 83 81 79 78 77 75 75 73 72 74 74 73 74 76 76 77 77 79 83 84 81 79 79 80 80 81 80 78 75 72 70 69 67 65 65 65 66 68 70 73 74 73 73 72 72 72 72 70 69 68 68 68 69 69 70 70 70 69 69 69 69 69 70 70 69 67 66 65 66 66 65 66 65 64 65 65 66 69 69 70 71 70 69 71
87 87 86 83 81 80 79 81 80 77 79 81 80 80 83 85 84 83 83 85 84 82 80 79 78 78 79 80 79 78 76 76 75 70 64 61 61 61 61 62 63 65 67 68 67 67 67 67 66 64 62 61 60 59 59 58 58 56 54 54 54 54 54 54 53 53 53 53 53 52 52 51 51 50 49 49 49 52 55 53 53 56 56 54 57
90 90 89 87 86 83 82 85 86 83 82 84 84 85 87 87 86 84 83 83 82 81 78 76 75 75 74 74 75 74 74 77 78 72 64 61 61 60 61 61 60 59 60 60 58 56 55 56 54 52 51 50 49 49 48 47 46 46 45 45 46 45 45 46 46 46 47 46 46 46 45 45 45 44 45 47 48 53 58 56 54 56 54 50 50
89 89 88 87 88 85 82 82 83 82 80 78 75 75 79 82 81 76 71 71 72 72 71 70 69 68 67 68 67 66 66 70 71 67 60 57 57 56 57 56 55 55 54 52 50 49 48 46 45 45 46 46 45 45 44 43 43 43 43 43 43 42 42 43 42 41 40 41 41 41 40 40 41 42 42 42 43 47 51 51 49 49 48 46 46
85 83 80 79 80 83 82 80 80 81 80 78 73 69 70 73 73 69 64 62 61 61 63 63 61 60 64 67 65 63 63 62 60 56 52 50 50 49 49 48 48 47 45 44 43 41 39 39 41 43 45 45 44 43 42 42 41 40 40 39 38 36 35 34 32 31 32 34 36 36 36 37 36 35 35 35 35 36 38 38 38 38 38 39 38
80 79 76 72 71 76 78 78 76 76 76 76 74 70 67 66 65 63 60 58 56 55 55 54 52 50 54 56 53 51 51 49 46 45 44 43 43 42 41 40 39 38 37 36 35 34 35 38 41 41 40 39 38 37 36 35 34 32 32 31 30 29 28 27 26 26 27 29 31 32 33 33 33 31 31 31 32 32 32 32 32 34 34 34 34
77 78 77 73 72 75 78 77 76 75 72 71 69 67 65 62 58 56 54 53 51 50 49 49 47 45 45 45 43 41 41 40 40 40 39 39 38 38 37 36 35 34 33 31 30 32 35 36 35 34 33 32 31 30 29 29 29 28 28 28 28 28 28 28 27 27 28 29 31 32 33 33 33 33 33 33 33 33 34 33 34 34 35 35 35
73 74 74 73 72 73 74 75 74 73 71 68 65 63 61 59 56 53 51 49 48 46 45 45 44 42 41 41 39 39 38 38 36 35 34 33 33 33 31 30 29 28 27 25 25 29 31 31 29 28 28 28 27 28 29 29 30 31 31 31 31 32 32 31 31 32 33 33 33 34 34 35 35 35 35 35 35 35 35 35 36 36 37 38 37
66 65 63 64 64 62 63 64 65 64 63 61 59 57 56 55 53 50 49 47 45 43 41 40 39 38 37 36 35 34 34 32 31 30 28 28 27 26 26 25 25 25 24 23 25 27 27 27 27 27 27 28 29 31 31 32 33 34 35 36 36 36 36 35 35 36 37 37 38 38 38 38 38 37 37 37 37 37 37 37 39 42 45 46 45
57 54 51 51 51 50 50 51 51 50 50 49 48 47 47 46 45 44 42 42 41 39 37 35 34 33 32 31 30 29 29 28 27 26 25 25 24 24 25 26 26 25 24 25 27 27 27 27 27 27 27 29 30 32 34 35 36 36 36 37 37 38 38 38 38 39 39 40 40 40 40 40 40 39 39 39 39 39 39 39 42 49 55 57 57
50 48 46 44 43 42 43 43 43 43 42 41 41 41 40 40 39 38 37 37 36 35 34 33 33 32 31 29 27 26 25 25 24 23 22 23 23 23 25 27 27 26 27 27 28 29 30 30 30 30 30 32 33 34 36 37 37 37 37 36 36 36 37 37 38 39 40 40 42 43 43 43 42 42 42 42 41 42 42 43 46 52 57 61 62
41 41 40 39 37 37 38 40 41 40 40 40 40 39 38 37 36 35 35 34 33 32 31 30 31 32 30 27 25 22 22 21 21 21 22 23 23 24 27 30 30 29 29 29 30 31 32 32 33 34 35 36 36 37 37 37 37 36 35 34 33 34 35 36 37 39 41 42 44 45 45 44 44 45 45 46 47 48 49 49 49 50 54 60 63
34 33 32 32 32 31 32 35 37 36 37 38 37 35 34 32 31 30 30 31 31 30 28 28 29 29 29 28 25 22 22 23 24 25 27 28 28 29 32 34 33 32 32 32 32 33 33 33 34 35 36 36 36 36 36 36 36 35 34 33 33 35 38 39 40 42 44 45 46 47 48 49 50 51 52 54 56 58 61 62 61 58 58 60 61
39 35 32 29 29 30 29 30 32 34 35 35 33 30 29 28 27 27 27 28 29 29 28 28 29 28 29 32 31 28 27 29 29 30 32 33 34 36 36 36 35 34 34 34 34 33 34 35 35 35 35 36 36 36 36 35 35 35 35 36 37 40 42 42 44 45 47 49 50 52 53 53 54 56 58 60 63 64 66 71 73 72 68 64 60
45 42 38 33 31 32 31 29 30 32 33 33 31 30 28 27 26 27 27 28 30 31 31 31 32 32 34 35 34 32 33 33 33 34 37 37 38 38 37 36 35 35 35 35 34 34 35 36 36 36 36 36 36 36 36 36 36 37 39 41 42 43 43 46 48 50 52 54 55 56 56 57 59 62 64 67 70 70 70 74 79 80 80 78 74
46 44 42 38 36 34 31 28 29 30 30 30 30 29 28 28 28 28 29 31 33 35 36 36 36 37 36 34 31 33 36 36 36 38 40 39 38 37 36 35 34 34 34 34 33 34 37 39 38 37 35 35 37 38 39 39 41 43 44 44 44 45 47 50 52 54 56 58 60 61 63 66 70 73 74 76 79 81 83 88 90 89 88 90 91
49 45 44 41 37 34 32 30 29 27 26 27 29 29 29 30 30 31 32 34 36 38 39 40 41 40 37 34 34 38 41 39 39 41 41 40 38 36 34 34 34 33 34 35 35 35 37 37 36 34 33 35 39 42 45 46 46 47 47 48 49 52 55 56 57 59 62 64 66 70 73 77 82 87 89 89 90 92 94 97 98 97 95 96 97
53 51 48 44 39 36 34 33 31 29 26 26 28 30 30 31 33 35 35 37 39 40 42 43 43 42 41 40 41 43 43 42 42 42 40 38 37 35 34 35 35 34 35 35 35 34 35 35 35 35 36 39 42 45 48 49 50 50 52 54 57 60 63 64 65 68 69 69 71 75 80 86 92 96 97 96 97 98 98 98 99 99 99 99 98
58 55 51 46 41 37 34 31 29 30 30 29 29 31 33 34 37 39 39 40 42 44 45 44 43 42 42 42 42 42 43 43 42 40 38 37 37 36 35 36 36 35 35 36 35 35 36 38 40 42 43 44 46 47 49 50 52 55 59 62 64 67 70 72 74 75 76 76 77 79 83 88 93 96 97 98 98 98 98 99 99 100 100 99 98
58 57 54 49 42 37 34 33 32 31 31 33 33 35 37 40 42 43 42 43 45 46 46 44 42 41 41 42 43 43 44 43 40 39 39 39 37 36 36 36 36 37 37 38 38 38 41 44 47 48 48 48 49 50 52 54 56 60 63 66 68 72 75 75 75 76 78 80 82 83 86 89 91 92 94 97 98 98 98 98 98 97 96 95 92
62 61 60 56 49 42 39 39 37 34 33 36 38 39 42 45 47 47 45 44 45 46 44 42 42 42 44 45 45 45 44 42 40 40 40 40 39 38 38 38 38 40 41 42 42 43 46 49 51 51 51 50 51 52 55 58 61 64 66 68 71 75 76 75 73 74 77 81 84 87 90 93 93 91 91 92 95 97 97 96 94 92 89 87 86
66 66 64 60 54 47 42 41 41 38 37 38 41 44 47 50 51 50 47 45 45 45 44 43 45 46 47 47 46 45 44 44 43 41 41 42 42 41 40 40 41 42 44 45 46 48 50 51 52 52 51 51 51 53 56 58 60 63 65 67 70 74 76 75 73 74 77 83 88 91 91 92 93 93 92 90 89 89 89 87 85 83 81 80 81
71 73 70 64 57 50 45 43 44 44 43 43 46 49 51 52 52 49 46 45 44 45 46 47 47 48 48 47 47 46 46 44 43 42 43 45 46 44 43 43 45 46 47 48 50 51 52 53 53 53 53 52 53 55 57 58 59 61 62 64 67 71 72 72 71 72 77 84 91 94 94 94 94 94 92 88 84 82 81 79 78 76 75 76 79
75 75 73 69 62 57 53 50 49 49 48 48 51 53 54 53 51 47 45 45 46 47 49 50 49 50 50 50 49 48 46 44 44 46 47 48 48 45 42 43 45 46 48 50 52 54 55 55 55 55 55 55 56 57 58 59 58 57 57 59 63 66 68 67 67 70 77 86 92 95 96 96 96 94 92 89 86 84 82 82 81 80 80 79 80
79 76 74 71 67 64 60 56 56 58 55 51 51 53 53 50 47 46 46 48 50 51 52 53 52 52 52 52 50 49 48 47 48 50 50 50 48 45 42 42 45 47 48 50 53 55 56 57 57 57 57 57 58 59 59 58 56 53 52 54 57 60 62 61 62 67 77 86 91 92 93 93 93 91 90 90 89 88 88 87 86 85 83 82 80
79 76 74 72 70 67 63 58 59 63 61 53 50 52 50 47 46 48 50 51 52 53 54 55 54 53 53 52 52 52 52 51 51 52 51 50 49 46 44 45 47 50 51 51 52 53 54 53 54 55 55 56 57 57 56 53 50 49 49 50 52 55 58 59 60 65 74 82 86 89 91 91 90 89 89 88 88 87 86 85 84 83 81 78 77
76 74 74 73 71 70 67 61 60 63 62 55 50 50 51 49 50 52 52 52 52 53 54 54 53 53 53 53 52 52 51 50 50 50 49 48 47 46 46 47 49 53 55 55 53 52 51 50 49 50 52 53 53 51 49 47 48 49 51 52 53 55 58 61 63 67 73 79 83 86 89 90 89 88 88 87 87 86 85 84 83 82 80 76 74